星链-5368 (STARLINK-5368 )
导读
STARLINK-5368是美国SpaceX公司星链星座中的一颗低轨互联网卫星,于北京时间2022年12月28日发射升空,属于星链项目中批量部署的组网卫星之一,运行在近地轨道。星链计划旨在构建全球卫星互联网星座,为全球偏远地区等提供互联网接入服务,STARLINK-5368也承担着为地面用户提供宽带网络连接的任务,进一步扩充了星链星座的全球覆盖能力。
Basic Information
目录编号:
54840
目录名称:
STARLINK-5368
国际标识:
2022-177W
轨道中心:
EARTH
卫星名称:
星链-5368
卫星全名:
星链-5368 (STARLINK-5368 )
卫星状态:
在轨 (已飞行1347 天)
发射日期:
2022-12-28 UTC
国别 :
美国
(US)
星等 :
--
Orbit Information
| 数据来源 | 国际轨道数据 | AOE轨道数据 |
| 星历时间 | 2026-09-04T16:04:39+0800 18小时前 查看轨道信息 | 2026-09-03T00:00:00+0800 2天前 查看轨道信息 |
| 半长轴 | 6861.177km | 6861.18km |
| 偏心率 | 0.0001411 | 0.0001241 |
| 轨道倾角 | 43.004° | 43.002° |
| 近地点辐角 | 277.514° | 70.394° |
| 升交点赤经 | 203.867° | 213.294° |
| 平近点角 | 82.555° | 95.626° |
| 近地点 | 482.071km | 482.191km |
| 远地点 | 484.009km | 483.895km |
| 周期 | 94.267分钟 | 94.267分钟 |
| 每日圈数 | 15.275833 | 15.275823 |
Detailed Information
固有亮度:
5
最大亮度:
2.5
卫星平台:
Starlink v1.5
覆盖范围:
全球
运营商:
太空探索技术公司
运营商所在国:
美国
制造商(研发单位):
太空探索技术公司
制造商所在国:
美国
使用方式:
暂无
Satellite Introduction
星链(Starlink)计划是由太空探索技术公司(SpaceX)提出的一个巨型低轨卫星互联网星座项目,计划在2019年至2024年间在太空搭建由约1.2万颗卫星组成的“星链”网络,其中1584颗将部署在地球上空550千米处的近地轨道,并从2020年开始工作。该卫星仍在工作。
2D Orbit Map
3D Orbit Map
Orbit Altitude Analysis Chart
Orbit Inclination Analysis Chart
Orbit Comprehensive Analysis Chart
View Comprehensive ChartConjunction Data List
| Event ID | Objects | TCA | Miss Dist (km) | Collision Risk Probability | Collision Risk Index (CRI) | Action |
|---|---|---|---|---|---|---|
| CDM_260906-091505-484006-261522 |
STARLINK-5368
(54840)
OBJECT G
(62615) | 2026-09-06T 09:15:28+0000 |
0.329 km
远距离 | 4.30278E-4 高风险 | 0.88 | |
| CDM_260905-192704-102605-484023 |
YAOGAN 28
(41026)
STARLINK-5368
(54840) | 2026-09-05T 19:27:08+0000 |
1.512 km
极远距离 | 6.379292E-6 低风险 | 0.51 | |
| CDM_260905-222205-484006-441221 |
STARLINK-5368
(54840)
STARLINK-34419
(64412) | 2026-09-05T 22:22:28+0000 |
2.720 km
极远距离 | 1.36383E-6 低风险 | 0.38 | |
| CDM_260829-195705-484006-795521 |
STARLINK-5368
(54840)
STARLINK-36872
(67955) | 2026-08-29T 19:57:41+0000 |
2.568 km
极远距离 | 9.009059E-7 极低风险 | 0.34 |

